Regional Weather Roundup
Issued by NWS

Home | Current Version | Previous Version | Graphics & Text | Print | Product List | Glossary On
Versions: 1 2 3 4 5 6 7 8 9 10 11 12 13 14 15 16 17 18 19 20 21 22 23 24 25 26 27 28 29 30 31 32 33 34 35 36 37 38 39 40 41 42 43 44 45 46 47 48 49 50
000
ASUS43 KOAX 231302
RWRNE

WEATHER ROUNDUP FOR NEBRASKA
NATIONAL WEATHER SERVICE OMAHA NE
700 AM CST FRI FEB 23 2018

NOTES: SATELLITE DATA IS BEING USED TO AUGMENT CLOUD COVER ABOVE
       12000 FEET.
       "FAIR" INDICATES FEW OR NO CLOUDS BELOW 12,000 FEET WITH NO
       SIGNIFICANT WEATHER AND/OR OBSTRUCTIONS TO VISIBILITY.


NEZ001>004-019>022-054>056-231400-
NEBRASKA PANHANDLE

CITY           SKY/WX    TMP DP  RH WIND       PRES   REMARKS
SCOTTSBLUFF    CLEAR      7   3  84 CALM      30.11R
ALLIANCE       MOCLDY    -4  -7  87 CALM      30.10R
CHADRON        CLEAR     -9 -14  78 SW5       30.18R WCI -20
GORDON         FAIR      -4  -9  80 CALM      30.14R
SIDNEY         MOCLDY     8   5  87 NW7       30.09S WCI  -3
$$

NEZ057>060-069>072-079>082-231400-
SOUTHWEST NEBRASKA

CITY           SKY/WX    TMP DP  RH WIND       PRES   REMARKS
NORTH PLATTE   PTCLDY     4  -2  76 NW3       30.18R
IMPERIAL       CLEAR     14  11  87 W5        30.15R WCI   6
LEXINGTON      CLEAR      8   4  85 W6        30.20R WCI  -2
MCCOOK         FOG       17  16  95 W6        30.18S VSB 1/2 WCI   9
OGALLALA       CLEAR      7   4  86 W3        30.16R
$$

NEZ005>010-023>029-035>040-094-231400-
NORTH CENTRAL NEBRASKA

CITY           SKY/WX    TMP DP  RH WIND       PRES   REMARKS
VALENTINE      CLEAR      4  -1  80 W7        30.20R WCI  -8
AINSWORTH      MOCLDY    13  12  95 NW9       30.17R WCI   1
BROKEN BOW     CLOUDY    14  11  87 N10       30.17F WCI   1
O`NEILL        CLOUDY    18  17  96 W8        30.21S WCI   8
ORD            CLOUDY    12  11  95 NW9       30.20S FOG     WCI   0
THEDFORD         N/A      9   6  87 NW9       30.16R WCI  -4
$$

NEZ041-046>049-061>064-073>077-083>087-231400-
SOUTH CENTRAL NEBRASKA

CITY           SKY/WX    TMP DP  RH WIND       PRES   REMARKS
GRAND ISLAND   CLEAR     17  13  84 W7        30.21R WCI   8
AURORA         CLOUDY    16  13  89 W7        30.21R WCI   6
HASTINGS       CLEAR     18  14  84 W9        30.20S WCI   7
HEBRON         CLOUDY    19  17  93 NW5       30.22S WCI  12
HOLDREGE       FOG       18  18  98 NW8       30.18F VSB 3/4 WCI   8
KEARNEY        CLEAR     14  11  87 NW6       30.21R WCI   5
YORK           CLOUDY    18  18 100 NW9       30.22R WCI   6
$$

NEZ011>018-030>034-042>045-231400-
NORTHEAST NEBRASKA

CITY           SKY/WX    TMP DP  RH WIND       PRES   REMARKS
NORFOLK        CLOUDY    14  12  92 NW13      30.19S WCI   0
ALBION         CLOUDY    18  16  91 NW10      30.20F FOG     WCI   6
BLAIR          FOG       20  18  93 W5        30.21R VSB<1/4 WCI  13
COLUMBUS       CLOUDY    15  12  88 NW9       30.23R WCI   3
FREMONT        CLOUDY    16  15  95 W5        30.23R FOG     WCI   9
TEKAMAH        PTCLDY    19  16  88 W12       30.22R WCI   7
WAYNE          CLOUDY    17  16  96 NW9       30.20S WCI   5
$$

NEZ050>053-065>068-078-088>093-231400-
SOUTHEAST NEBRASKA

CITY           SKY/WX    TMP DP  RH WIND       PRES   REMARKS
LINCOLN        CLOUDY    21  19  92 NW5       30.24R WCI  15
OMAHA EPPLEY   CLOUDY    24  21  88 NW12      30.22R FOG     WCI  13
BEATRICE       CLOUDY    23  22  94 W6        30.22F WCI  16
FALLS CITY     PTCLDY    28  25  88 NW8       30.24R WCI  20
NEBRASKA CITY  CLOUDY    23  23 100 W6        30.23R FOG     WCI  16
PLATTSMOUTH    CLOUDY    20  19  97 W6        30.21S FOG     WCI  12
$$

NEZ044-045-051>053-067-231400-
OMAHA AREA

CITY           SKY/WX    TMP DP  RH WIND       PRES   REMARKS
OMAHA EPPLEY   CLOUDY    24  21  88 NW12      30.22R FOG     WCI  13
BLAIR          FOG       20  18  93 W5        30.21R VSB<1/4 WCI  13
FREMONT        CLOUDY    16  15  95 W5        30.23R FOG     WCI   9
MILLARD        CLOUDY    25  22  89 NW5       30.23R WCI  19
OFFUTT AFB     CLOUDY    24  21  91 W6        30.22R WCI  16
PLATTSMOUTH    CLOUDY    20  19  97 W6        30.21S FOG     WCI  12
WAHOO          FAIR      18  16  90 W6        30.22S WCI  10
$$




USA.gov is the U.S. government's official web portal to all federal, state and local government web resources and services.